VA3XLC Weather Reports


Display with metric or nautical units.
time (UTC)temp
F
wind
direction
speed
MPH
gust
MPH
rain 1hr
in
rain 24hr
in
rain mn
in
humidity
%
barometer
mb
20260502200552 43 355 5.0 8.0 0.00 0.00 0.00 38 982.6
20260502200052 43 326 6.0 9.0 0.00 0.00 0.00 40 982.6
20260502195552 43 336 7.0 10.0 0.00 0.00 0.00 40 982.7
20260502195051 43 343 7.0 10.0 0.00 0.00 0.00 40 982.7
20260502194550 43 352 4.0 6.0 0.00 0.00 0.00 43 982.7
20260502194050 43 332 4.0 6.0 0.00 0.00 0.00 43 982.9
20260502193550 43 17 4.0 6.0 0.00 0.00 0.00 43 982.9
20260502193049 42 315 5.0 7.0 0.00 0.00 0.00 43 983.0
20260502192027 43 10 5.0 8.0 0.00 0.00 0.00 43 983.0
20260502191526 42 320 5.0 8.0 0.00 0.00 0.00 45 983.0
20260502191025 42 321 5.0 7.0 0.00 0.00 0.00 44 983.1
20260502190525 43 328 7.0 9.0 0.00 0.00 0.00 45 983.1
20260502190025 43 344 5.0 7.0 0.00 0.00 0.00 45 983.1
20260502185525 43 350 6.0 10.0 0.00 0.00 0.00 46 983.1
20260502185025 42 348 3.0 5.0 0.00 0.00 0.00 45 983.1
20260502184524 42 300 5.0 11.0 0.00 0.00 0.00 47 983.1
20260502184023 42 337 6.0 7.0 0.00 0.00 0.00 46 983.1
20260502183523 43 347 8.0 11.0 0.00 0.00 0.00 46 983.1
20260502182502 42 11 5.0 8.0 0.00 0.00 0.00 46 983.1
20260502182001 42 314 3.0 7.0 0.00 0.00 0.00 47 983.1
20260502181501 42 341 6.0 8.0 0.00 0.00 0.00 47 983.2
20260502181001 42 309 4.0 6.0 0.00 0.00 0.00 47 983.2
20260502170414 41 339 6.0 9.0 0.00 0.00 0.00 50 983.2
20260502163912 41 339 6.0 9.0 0.00 0.00 0.00 48 983.1
20260502163411 42 327 7.0 9.0 0.00 0.00 0.00 48 983.1
20260502162911 42 303 7.0 9.0 0.00 0.00 0.00 46 983.1
20260502162411 42 349 4.0 6.0 0.00 0.00 0.00 48 983.1
20260502160828 41 23 6.0 9.0 0.00 0.00 0.00 52 983.3
20260502160327 41 331 7.0 10.0 0.00 0.00 0.00 52 983.3
20260502151722 40 348 5.0 9.0 0.00 0.00 0.00 51 983.3
20260502151221 40 3 5.0 8.0 0.00 0.00 0.00 52 983.2
20260502150721 40 352 5.0 6.0 0.00 0.00 0.00 51 983.2
20260502150221 40 4 7.0 9.0 0.00 0.00 0.00 51 983.2
20260502130549 38 20 5.0 11.0 0.00 0.00 0.00 63 983.6
20260502123548 37 335 4.0 7.0 0.00 0.00 0.00 67 983.7
20260502123048 37 338 7.0 11.0 0.00 0.00 0.00 67 983.7
20260502122547 37 358 4.0 6.0 0.00 0.00 0.00 68 983.7
20260502122046 37 341 4.0 6.0 0.00 0.00 0.00 68 983.6
20260502121546 37 313 5.0 7.0 0.00 0.00 0.00 69 983.6
20260502114940 36 319 5.0 7.0 0.00 0.00 0.00 71 983.7
20260502114440 36 351 3.0 4.0 0.00 0.00 0.00 72 983.7
20260502113940 35 316 2.0 4.0 0.00 0.00 0.00 73 983.7
20260502112919 35 331 4.0 5.0 0.00 0.00 0.00 74 983.7
20260502112418 35 333 3.0 4.0 0.00 0.00 0.00 74 983.6
20260502111918 35 301 2.0 3.0 0.00 0.00 0.00 74 983.6
20260502110856 35 337 4.0 6.0 0.00 0.00 0.00 74 983.5
20260502110355 35 300 3.0 3.0 0.00 0.00 0.00 74 983.5
20260502105855 35 289 3.0 4.0 0.00 0.00 0.00 75 983.5
20260502105354 35 317 1.0 2.0 0.00 0.00 0.00 74 983.4
20260502104854 35 293 2.0 3.0 0.00 0.00 0.00 75 983.4
20260502104354 35 312 2.0 4.0 0.00 0.00 0.00 74 983.3
20260502103854 35 299 2.0 3.0 0.00 0.00 0.00 74 983.3
20260502103353 35 313 2.0 4.0 0.00 0.00 0.00 74 983.3
20260502102852 35 323 3.0 4.0 0.00 0.00 0.00 74 983.3
20260502102352 35 289 1.0 2.0 0.00 0.00 0.00 74 983.3
20260502101851 35 313 2.0 4.0 0.00 0.00 0.00 74 983.4
20260502101351 35 289 2.0 3.0 0.00 0.00 0.00 74 983.4
20260502100330 35 270 4.0 5.0 0.00 0.00 0.00 74 983.3
20260502091244 35 285 2.0 3.0 0.00 0.00 0.00 74 982.9
20260502090744 35 311 3.0 4.0 0.00 0.00 0.00 74 982.9
20260502090244 35 268 3.0 5.0 0.00 0.00 0.00 74 982.9
20260502071120 35 330 3.0 4.0 0.00 0.00 0.00 77 982.6
20260502070059 36 292 2.0 3.0 0.00 0.00 0.00 76 982.8
20260502065558 36 303 2.0 3.0 0.00 0.00 0.00 76 982.9
20260502064537 36 275 2.0 3.0 0.00 0.00 0.00 75 982.9
20260502064037 35 274 4.0 6.0 0.00 0.00 0.00 74 982.9
20260502063536 35 262 3.0 4.0 0.00 0.00 0.00 74 982.9
20260502063036 35 278 2.0 5.0 0.00 0.00 0.00 74 982.9
20260502062536 35 277 3.0 3.0 0.00 0.00 0.00 74 982.9
20260502062036 35 289 3.0 4.0 0.00 0.00 0.00 74 983.0
20260502061536 35 266 3.0 4.0 0.00 0.00 0.00 73 983.0
20260502061035 35 246 3.0 4.0 0.00 0.00 0.00 73 982.8
20260502060535 35 281 3.0 3.0 0.00 0.00 0.00 73 982.8
20260502060035 35 316 2.0 3.0 0.00 0.00 0.00 72 982.8
20260502055534 35 342 3.0 5.0 0.00 0.00 0.00 72 983.0
20260502054513 35 283 4.0 6.0 0.00 0.00 0.00 72 983.1
20260502053451 35 328 1.0 2.0 0.00 0.00 0.00 71 983.1
20260502052429 35 301 3.0 3.0 0.00 0.00 0.00 70 983.2
20260502051929 35 263 2.0 3.0 0.00 0.00 0.00 70 983.2
20260502051429 35 263 3.0 5.0 0.00 0.00 0.00 70 983.2
20260502050929 35 272 4.0 6.0 0.00 0.00 0.00 70 983.1
20260502050428 35 290 1.0 2.0 0.00 0.00 0.00 70 982.8
20260502045406 34 275 2.0 3.0 0.00 0.00 0.00 70 983.1
20260502044906 34 280 3.0 5.0 0.00 0.00 0.00 69 983.0
20260502044406 34 261 3.0 3.0 0.00 0.00 0.00 69 983.0
20260502043905 34 294 3.0 5.0 0.00 0.00 0.00 69 983.0
20260502042322 34 315 2.0 3.0 0.00 0.00 0.00 69 983.0
20260502040739 35 319 3.0 4.0 0.00 0.00 0.00 66 982.8
20260502040239 35 317 4.0 5.0 0.00 0.00 0.00 66 982.8
20260502035739 35 298 3.0 3.0 0.00 0.00 0.00 65 982.7
20260502035239 35 328 1.0 3.0 0.00 0.00 0.00 64 982.6
20260502034217 35 330 2.0 3.0 0.00 0.00 0.00 63 982.8
20260502033716 35 339 3.0 5.0 0.00 0.00 0.00 63 982.9
20260502033216 35 330 3.0 3.0 0.00 0.00 0.00 63 982.8
20260502032716 35 321 3.0 5.0 0.00 0.00 0.00 62 982.8
20260502032215 35 317 3.0 3.0 0.00 0.00 0.00 63 982.8
20260502031714 35 289 1.0 2.0 0.00 0.00 0.00 63 982.9
20260502031214 35 305 3.0 4.0 0.00 0.00 0.00 64 982.8
20260502030152 35 287 2.0 3.0 0.00 0.00 0.00 63 982.7
20260502025652 35 276 2.0 3.0 0.00 0.00 0.00 64 982.7
20260502025152 35 287 3.0 4.0 0.00 0.00 0.00 63 982.6
20260502024650 35 287 3.0 3.0 0.00 0.00 0.00 63 982.6
20260502024150 35 291 2.0 2.0 0.00 0.00 0.00 63 982.5
20260502023129 35 303 2.0 4.0 0.00 0.00 0.00 61 982.6
20260502022628 35 295 2.0 3.0 0.00 0.00 0.00 61 982.6
20260502022128 36 282 3.0 3.0 0.00 0.00 0.00 60 982.6
20260502021627 36 280 3.0 4.0 0.00 0.00 0.00 60 982.6
20260502021127 36 279 2.0 3.0 0.00 0.00 0.00 59 982.5
20260502015544 36 303 1.0 2.0 0.00 0.00 0.00 59 982.4
20260502014522 36 296 1.0 2.0 0.00 0.00 0.00 57 982.3
20260502014021 37 314 1.0 2.0 0.00 0.00 0.00 56 982.3
20260502013520 37 289 2.0 4.0 0.00 0.00 0.00 54 982.2
20260502013020 37 302 2.0 5.0 0.00 0.00 0.00 54 982.1
20260502012520 37 348 2.0 4.0 0.00 0.00 0.00 54 982.0
20260502012020 38 325 2.0 3.0 0.00 0.00 0.00 53 982.0
20260502011519 38 356 3.0 5.0 0.00 0.00 0.00 51 981.8
20260502011019 38 19 2.0 4.0 0.00 0.00 0.00 51 981.8
20260502010519 38 0 3.0 5.0 0.00 0.00 0.00 49 981.7
20260502010019 39 0 5.0 7.0 0.00 0.00 0.00 48 981.8
20260502004957 39 8 4.0 6.0 0.00 0.00 0.00 45 981.6
20260502004457 39 352 3.0 5.0 0.00 0.00 0.00 44 981.5
20260502003957 40 351 3.0 4.0 0.00 0.00 0.00 43 981.5
20260502003456 40 3 5.0 7.0 0.00 0.00 0.00 42 981.4
20260502002956 40 355 6.0 9.0 0.00 0.00 0.00 40 981.4
20260502002455 40 357 6.0 9.0 0.00 0.00 0.00 39 981.3
20260502001955 41 334 4.0 9.0 0.00 0.00 0.00 40 981.2
20260502001455 41 20 4.0 7.0 0.00 0.00 0.00 40 981.2
20260502000954 41 15 6.0 9.0 0.00 0.00 0.00 43 981.1
20260502000454 41 5 5.0 9.0 0.00 0.00 0.00 48 981.1
20260501235953 41 0 3.0 7.0 0.00 0.00 0.00 47 981.0
20260501235453 41 15 3.0 6.0 0.00 0.00 0.00 47 981.1
20260501234953 42 348 4.0 7.0 0.00 0.00 0.00 49 981.1
20260501234452 42 328 3.0 5.0 0.00 0.00 0.00 50 981.1
20260501233952 42 349 6.0 9.0 0.00 0.00 0.00 48 981.1
20260501233452 42 339 5.0 8.0 0.00 0.00 0.00 46 981.0
20260501232430 43 11 4.0 6.0 0.00 0.00 0.00 43 981.0
20260501231930 44 345 5.0 10.0 0.00 0.00 0.00 44 981.0
20260501231429 44 340 8.0 10.0 0.00 0.00 0.00 43 980.9
20260501230928 44 10 6.0 9.0 0.00 0.00 0.00 41 980.9
20260501230428 44 356 6.0 10.0 0.00 0.00 0.00 41 980.8
20260501225928 44 348 6.0 10.0 0.00 0.00 0.00 42 980.8
20260501225428 43 344 5.0 8.0 0.00 0.00 0.00 44 980.8
20260501224406 43 2 4.0 9.0 0.00 0.00 0.00 44 980.8
20260501223345 44 354 4.0 6.0 0.00 0.00 0.00 41 980.7
20260501222324 44 8 6.0 9.0 0.00 0.00 0.00 42 980.6
20260501221302 45 338 10.0 16.0 0.00 0.00 0.00 41 980.6
20260501220802 45 344 5.0 10.0 0.00 0.00 0.00 41 980.5
20260501220302 46 334 7.0 11.0 0.00 0.00 0.00 42 980.4
20260501215801 46 320 4.0 6.0 0.00 0.00 0.00 41 980.2
20260501215305 45 354 7.0 11.0 0.00 0.00 0.00 41 980.4
20260501214801 45 352 4.0 8.0 0.00 0.00 0.00 41 980.2
20260501214301 45 358 6.0 11.0 0.00 0.00 0.00 42 980.2
20260501213239 45 347 5.0 7.0 0.00 0.00 0.00 43 980.2
20260501212739 45 349 5.0 9.0 0.00 0.00 0.00 45 980.1
20260501211718 45 345 5.0 9.0 0.00 0.00 0.00 46 980.1
20260501211217 45 330 5.0 8.0 0.00 0.00 0.00 46 980.1
20260501210717 45 328 8.0 12.0 0.00 0.00 0.00 45 980.1
20260501210217 45 333 11.0 17.0 0.00 0.00 0.00 44 980.0
20260501205155 46 29 6.0 11.0 0.00 0.00 0.00 41 979.9
20260501204655 46 327 5.0 8.0 0.00 0.00 0.00 42 980.0
20260501204155 46 349 6.0 10.0 0.00 0.00 0.00 42 979.9
20260501203655 46 350 5.0 8.0 0.00 0.00 0.00 42 979.9
20260501203154 46 357 8.0 11.0 0.00 0.00 0.00 40 979.9
20260501202653 47 345 7.0 10.0 0.00 0.00 0.00 41 979.8
20260501202152 47 32 5.0 8.0 0.00 0.00 0.00 41 979.8
20260501201652 47 359 7.0 9.0 0.00 0.00 0.00 41 979.7
20260501201151 47 4 5.0 8.0 0.00 0.00 0.00 39 979.7